This demonstration page uses our WeatherBlox Daily Observations layout. Learn more.

Left ArrowRight Arrow

Hourly Observations for October 3, 2015

Temp ( °F °C ) Dew Point ( °F °C ) Humidity (%) Winds ( mph kmh ) Pressure ( in mb ) Visibility ( mi km ) Precip ( " mm )
12:51 am 00:51 Clear 72 22.2 44 6.7 37 37 ESE 3 6 29.61 1003 10 16 0.00 0.00
1:51 am 01:51 Clear 69 20.6 45 7.2 42 42 E 7 11 29.61 1003 10 16 0.00 0.00
2:51 am 02:51 Clear 66 18.9 46 7.8 49 49 Calm 29.60 1003 10 16 0.00 0.00
3:51 am 03:51 Clear 64 17.8 46 7.8 52 52 Calm 29.61 1003 10 16 0.00 0.00
4:51 am 04:51 Clear 61 16.1 47 8.3 60 60 Calm 29.62 1003 10 16 0.00 0.00
5:51 am 05:51 Clear 60 15.6 47 8.3 62 62 ESE 5 7 29.64 1004 10 16 0.00 0.00
6:51 am 06:51 Sunny 62 16.7 48 8.9 60 60 E 3 6 29.64 1004 10 16 0.00 0.00
7:51 am 07:51 Sunny 69 20.6 48 8.9 47 47 E 7 11 29.65 1004 10 16 0.00 0.00
8:51 am 08:51 Sunny 75 23.9 44 6.7 33 33 SE 6 9 29.63 1003 10 16 0.00 0.00
9:51 am 09:51 Sunny 79 26.1 44 6.7 29 29 ESE 5 7 29.61 1003 10 16 0.00 0.00
10:51 am 10:51 Sunny 83 28.3 43 6.1 24 24 SE 6 9 29.59 1002 10 16 0.00 0.00
11:51 am 11:51 Sunny 85 29.4 43 6.1 23 23 SSE 8 13 29.56 1001 10 16 0.00 0.00
12:51 pm 12:51 Sunny 87 30.6 42 5.6 21 21 undefined N/A 29.52 1000 10 16 0.00 0.00
1:51 pm 13:51 Mostly Sunny 90 32.2 42 5.6 19 19 NW 9 15 29.48 998 10 16 0.00 0.00
2:51 pm 14:51 Sunny 89 31.7 39 3.9 17 17 WSW 8 13 29.47 998 10 16 0.00 0.00
3:51 pm 15:51 Sunny 89 31.7 37 2.8 16 16 W 6 9 29.47 998 10 16 0.00 0.00
4:51 pm 16:51 Sunny 87 30.6 38 3.3 18 18 NNW 13 20 29.48 998 10 16 0.00 0.00
5:51 pm 17:51 Mostly Sunny 83 28.3 43 6.1 24 24 Calm 29.50 999 10 16 0.00 0.00
6:51 pm 18:51 Mostly Clear 81 27.2 40 4.4 23 23 NW 8 13 29.52 1000 10 16 0.00 0.00
7:51 pm 19:51 Mostly Cloudy 78 25.6 41 5 27 27 WNW 3 6 29.54 1000 10 16 0.00 0.00
8:51 pm 20:51 Clear 72 22.2 42 5.6 34 34 N 6 9 29.56 1001 10 16 0.00 0.00
9:51 pm 21:51 Mostly Clear 72 22.2 42 5.6 34 34 NNE 8 13 29.57 1001 10 16 0.00 0.00
10:51 pm 22:51 Mostly Clear 70 21.1 44 6.7 39 39 ESE 7 11 29.58 1002 10 16 0.00 0.00
11:51 pm 23:51 Clear 70 21.1 45 7.2 41 41 ENE 8 13 29.58 1002 10 16 0.00 0.00

Powered by AerisWeather